Terminal Aerodrome Forecast
Issued by NWS

Home | Current Version | Previous Version | Text Only | Print | Product List | Glossary On
Versions: 1 2 3 4 5 6 7 8 9 10 11 12 13 14 15 16 17 18 19 20 21 22 23 24 25 26 27 28 29 30 31 32 33 34 35 36
000
FTUS43 KDMX 252341
TAFMCW
TAF
KMCW 252341Z 2600/2624 25005KT 3SM RA BR VCTS SCT030CB OVC100
     FM260200 01005KT P6SM VCSH OVC006
     FM261200 28006KT P6SM OVC005
     FM261600 31009KT P6SM OVC011=

USA.gov is the U.S. government's official web portal to all federal, state and local government web resources and services.